Aérodrome :
LOGIN :

S'inscrire | Disclaimer

   EN    FR    IT 

 










Légende :    VFR   VFR Marginal   IFR   IFR Intensif   IFR Très Intensif
Visi : 
Plafond : 
>= 8 km
>= 3000ft
5 à 8 km
1000 à 3000 ft
1500m à 5 km
500 à 1000 ft
800 à 1500m
200 à 500 ft
< 800m
< 200 ft
Symboles :   Orages  Brouillard  Fortes neiges  Fortes précipitations  Vent > 20 kt
SIGMETs :   Divers  Orages  Givrage  Turbulence  Onde Orograph.  Cendres Volcan.







- Altitude de l'aérodrome : 412 ft
- Code IATA : ORE
- Voir les cartes d'approche


LFOJ - Orleans

DERNIER METAR :
  • 152230Z AUTO 36005KT CAVOK 18/13 Q1019

METARs EXPIRÉS :
  • 152200Z AUTO 36005KT CAVOK 17/13 Q1019
  • 152130Z AUTO 35004KT CAVOK 18/13 Q1018
  • 152100Z AUTO 35004KT CAVOK 19/13 Q1019
  • 152030Z AUTO 34004KT 300V360 CAVOK 20/13 Q1019
  • 152000Z AUTO 35003KT CAVOK 20/13 Q1019

TAF AMD TAF LFOJ
Valide du 15 à 13h jusqu'au 16 à 09h UTC


151230Z 1513/1609 28008KT CAVOK
TEMPO 1515/1518 30010G20KT
Pas de NOTAMs connus pour ce terrain.



MET'MAP, la Météo Aéronautique d'un coup d'oeil ! - Copyright ORBIFLY Décembre 2007 - Disclaimer

ORBIFLY MET'MAP TEAM :

Programmation & Développement : Alexandra Zaïnal
Conception & Développement : Baudouin d'Aumeries
Co-Programmation & Développement : Marc-Olivier Méhu
Soutien technique & logistique : Manuel Goepfert

Contact : metmap@orbifly.com




SOURCES & CREDITS :

   NOAA